Regional Weather Roundup
Issued by NWS Green Bay, WI

Home | Current Version | Previous Version | Text Only | Print | Product List | Glossary On
Versions: 1 2 3 4 5 6 7 8 9 10 11 12 13 14 15 16 17 18 19 20 21 22 23 24 25 26 27 28 29 30 31 32 33 34 35 36 37 38 39 40 41 42 43 44 45 46 47 48 49 50
000
ASUS43 KGRB 220559
RWRGRB

NORTH-CENTRAL AND NORTHEAST WISCONSIN REGIONAL WEATHER ROUNDUP
NATIONAL WEATHER SERVICE GREEN BAY WI
100 AM CDT WED OCT 22 2014

WIZ005-009-010>012-018-019-220700-
NORTH CENTRAL WISCONSIN

CITY           SKY/WX    TMP DP  RH WIND       PRES   REMARKS
IRONWOOD       CLEAR     39  34  81 SE6       30.23S
MANITOWISH WTR NOT AVBL
ARBOR VITAE    NOT AVBL
EAGLE RIVER    NOT AVBL
LAND O LAKES   NOT AVBL
RHINELANDER    CLEAR     32  29  88 E5        30.28S
PHILLIPS       NOT AVBL
ANTIGO         NOT AVBL
TOMAHAWK       NOT AVBL
MERRILL        NOT AVBL
$$

WIZ013-073-220700-
NORTHEAST WISCONSIN

CITY           SKY/WX    TMP DP  RH WIND       PRES   REMARKS
IRON MOUNTAIN  PTCLDY    24  21  88 CALM      30.30S FOG
MARINETTE      PTCLDY    32  28  86 NW5       30.31R
$$

WIZ017-030-035>037-045-220700-
CENTRAL WISCONSIN

CITY           SKY/WX    TMP DP  RH WIND       PRES   REMARKS
MEDFORD        NOT AVBL
WAUSAU         PTCLDY    34  30  85 CALM      30.28S
MOSINEE        NOT AVBL
MARSHFIELD     CLEAR     35  33  92 CALM      30.27S
WISC RAPIDS    FOG       30  29  96 CALM      30.30R VSB 1
STEVENS POINT  NOT AVBL
WAUPACA        NOT AVBL
SHAWANO        NOT AVBL
CLINTONVILLE   NOT AVBL
$$

WIZ038-039-048-051-220700-
FOX VALLEY

CITY           SKY/WX    TMP DP  RH WIND       PRES   REMARKS
NWS GREEN BAY  CLEAR     31  30  96 CALM      30.30F
APPLETON       NOT AVBL
OSHKOSH        CLEAR     36  34  92 CALM      30.29S
FOND DU LAC    CLEAR     31  30  96 CALM      30.30R
$$

WIZ022-050-052-220700-
EAST CENTRAL WISCONSIN

CITY           SKY/WX    TMP DP  RH WIND       PRES   REMARKS
STURGEON BAY   CLEAR     39  36  87 CALM      30.31R
MANITOWOC      NOT AVBL
SHEBOYGAN      CLEAR     31  29  92 NW5       30.30R
$$

LMZ563-521-522-541>543-220700-
LAKESHORE

STATION/POSITION TIME  TEMP    WIND        PRES    VSBY  WAVE
                       AIR SEA DIR/SP/G                  HT/PER
                 (UTC) (F)     (DEG/KT/KT) (MB)    (MI)  (FT/S)
SHEBOYGAN LKSHOR 0500   47 49   60/ 14/ 16 1026.1F
KEWAUNEE LKSHORE 0500   46      70/  6/  8 1025.0R
NORTHPORT PIER   0500   46      90/  9/ 12 1026.1S
N MID LAKE BUOY  0500   46 51   70/ 10/ 12 1026.6R         2/ 4
SISTER BAY LKSHO 0500             CALM       N/A
CHAMBERS ISLAND  0500   44      60/  8/ 10 1026.1S
MENOMINEE LKSHOR 0500   37     310/  3/  5 1026.9R
$$



USA.gov is the U.S. government's official web portal to all federal, state and local government web resources and services.